GAP2046 RPVE-RPLL

Flight info

Callsign GAP2046
Flight time 0h 37m
Altitude 24000
Route MINOR8A MINOR B473 LAIYA LAIYA7R
Aircraft A320/M-SDE3FGHIRWY/LB1

Departure

Time 2026-05-05 08:06
Airport Godofredo P. Ramos Airport (RPVE)

Arrival

Time 2026-05-05 08:43
Airport Ninoy Aquino International Airport (RPLL)
Time Latitude Longitude Altitude Speed Heading
2026-05-05 07:51 11.92673 121.96411 30 ft 0 kts 153°
2026-05-05 07:55 11.92685 121.96405 30 ft 2 kts 153°
2026-05-05 07:56 11.92699 121.96398 30 ft 2 kts 153°
2026-05-05 07:56 11.92710 121.96391 30 ft 1 kts 158°
2026-05-05 07:56 11.92720 121.96393 30 ft 1 kts 223°
2026-05-05 07:56 11.92723 121.96397 30 ft 1 kts 252°
2026-05-05 07:57 11.92725 121.96403 30 ft 0 kts 243°
2026-05-05 07:59 11.92725 121.96402 30 ft 0 kts 243°
2026-05-05 07:59 11.92719 121.96390 30 ft 3 kts 243°
2026-05-05 07:59 11.92702 121.96356 30 ft 6 kts 243°
2026-05-05 08:00 11.92679 121.96312 30 ft 7 kts 243°
2026-05-05 08:00 11.92653 121.96260 30 ft 8 kts 243°
2026-05-05 08:00 11.92646 121.96210 30 ft 7 kts 303°
2026-05-05 08:00 11.92696 121.96175 30 ft 9 kts 332°
2026-05-05 08:01 11.92759 121.96143 30 ft 10 kts 332°
2026-05-05 08:01 11.92801 121.96107 30 ft 7 kts 284°
2026-05-05 08:01 11.92781 121.96052 30 ft 9 kts 242°
2026-05-05 08:01 11.92749 121.95991 30 ft 10 kts 242°
2026-05-05 08:02 11.92712 121.95917 30 ft 13 kts 243°
2026-05-05 08:02 11.92667 121.95828 30 ft 14 kts 242°
2026-05-05 08:02 11.92620 121.95735 30 ft 15 kts 243°
2026-05-05 08:02 11.92571 121.95637 30 ft 15 kts 243°
2026-05-05 08:03 11.92520 121.95536 30 ft 16 kts 243°
2026-05-05 08:03 11.92467 121.95431 30 ft 16 kts 243°
2026-05-05 08:03 11.92413 121.95325 30 ft 17 kts 243°
2026-05-05 08:03 11.92359 121.95215 30 ft 17 kts 243°
2026-05-05 08:04 11.92303 121.95104 30 ft 13 kts 242°
2026-05-05 08:04 11.92250 121.95053 30 ft 10 kts 216°
2026-05-05 08:04 11.92242 121.95007 30 ft 7 kts 324°
2026-05-05 08:04 11.92275 121.95043 30 ft 8 kts 70°
2026-05-05 08:05 11.92303 121.95105 30 ft 11 kts 63°
2026-05-05 08:05 11.92426 121.95350 30 ft 73 kts 63°
2026-05-05 08:05 11.92759 121.96012 31 ft 133 kts 63°
2026-05-05 08:05 11.93218 121.96948 353 ft 150 kts 64°
2026-05-05 08:06 11.93675 121.97875 914 ft 148 kts 64°
2026-05-05 08:06 11.94145 121.98797 1371 ft 145 kts 64°
2026-05-05 08:06 11.94616 121.99721 1689 ft 147 kts 64°
2026-05-05 08:06 11.95095 122.00673 1912 ft 158 kts 64°
2026-05-05 08:07 11.95615 122.01710 2137 ft 171 kts 64°
2026-05-05 08:07 11.96289 122.02771 2391 ft 186 kts 46°
2026-05-05 08:07 11.97402 122.03525 2664 ft 201 kts 29°
2026-05-05 08:07 11.98726 122.04189 2874 ft 221 kts 27°
2026-05-05 08:08 12.00170 122.04896 3194 ft 238 kts 27°
2026-05-05 08:08 12.01731 122.05669 3519 ft 255 kts 28°
2026-05-05 08:08 12.03358 122.06484 3864 ft 269 kts 28°
2026-05-05 08:08 12.05066 122.07343 4508 ft 272 kts 28°
2026-05-05 08:09 12.06759 122.08197 5163 ft 274 kts 28°
2026-05-05 08:09 12.08470 122.09063 5787 ft 276 kts 28°
2026-05-05 08:09 12.10178 122.09927 6414 ft 278 kts 28°
2026-05-05 08:09 12.11931 122.10815 7065 ft 279 kts 28°
2026-05-05 08:10 12.13659 122.11690 7683 ft 281 kts 28°
2026-05-05 08:10 12.15431 122.12587 8349 ft 283 kts 28°
2026-05-05 08:10 12.17194 122.13483 9106 ft 286 kts 28°
2026-05-05 08:10 12.18990 122.14397 9919 ft 290 kts 27°
2026-05-05 08:11 12.20798 122.15316 10722 ft 297 kts 27°
2026-05-05 08:11 12.22721 122.16291 11184 ft 313 kts 26°
2026-05-05 08:11 12.24708 122.17291 11444 ft 328 kts 27°
2026-05-05 08:11 12.26798 122.18345 11937 ft 333 kts 27°
2026-05-05 08:12 12.28875 122.19395 12445 ft 336 kts 28°
2026-05-05 08:12 12.30975 122.20459 12941 ft 338 kts 28°
2026-05-05 08:12 12.33100 122.21541 13476 ft 341 kts 27°
2026-05-05 08:12 12.35314 122.22378 13938 ft 347 kts 11°
2026-05-05 08:13 12.37736 122.22324 14429 ft 353 kts 348°
2026-05-05 08:13 12.40016 122.21346 14925 ft 358 kts 329°
2026-05-05 08:13 12.42080 122.19914 15425 ft 361 kts 327°
2026-05-05 08:13 12.44164 122.18444 15879 ft 364 kts 327°
2026-05-05 08:14 12.46246 122.16978 16318 ft 367 kts 327°
2026-05-05 08:14 12.48372 122.15488 16764 ft 370 kts 327°
2026-05-05 08:14 12.50505 122.13998 17189 ft 372 kts 327°
2026-05-05 08:14 12.52655 122.12499 17598 ft 375 kts 327°
2026-05-05 08:15 12.54816 122.10996 18003 ft 377 kts 327°
2026-05-05 08:15 12.56991 122.09483 18387 ft 380 kts 327°
2026-05-05 08:15 12.59213 122.07938 18788 ft 383 kts 327°
2026-05-05 08:15 12.61407 122.06413 19190 ft 385 kts 327°
2026-05-05 08:16 12.63647 122.04854 19599 ft 387 kts 327°
2026-05-05 08:16 12.65872 122.03307 20000 ft 389 kts 326°
2026-05-05 08:16 12.68100 122.01756 20383 ft 391 kts 327°
2026-05-05 08:16 12.70366 122.00178 20755 ft 394 kts 326°
2026-05-05 08:17 12.72665 121.98577 21119 ft 396 kts 326°
2026-05-05 08:17 12.74947 121.96989 21481 ft 399 kts 326°
2026-05-05 08:17 12.77230 121.95401 21852 ft 401 kts 326°
2026-05-05 08:17 12.79565 121.93776 22215 ft 403 kts 326°
2026-05-05 08:18 12.81887 121.92158 22555 ft 405 kts 326°
2026-05-05 08:18 12.84210 121.90540 22910 ft 407 kts 326°
2026-05-05 08:18 12.86582 121.88886 23266 ft 409 kts 326°
2026-05-05 08:18 12.88919 121.87255 23610 ft 411 kts 326°
2026-05-05 08:19 12.91310 121.85587 23818 ft 413 kts 326°
2026-05-05 08:19 12.93675 121.83936 23824 ft 412 kts 326°
2026-05-05 08:19 12.96049 121.82280 23827 ft 412 kts 326°
2026-05-05 08:19 12.98418 121.80627 23830 ft 411 kts 326°
2026-05-05 08:20 13.00806 121.78960 23834 ft 411 kts 326°
2026-05-05 08:20 13.03155 121.77320 23835 ft 411 kts 326°
2026-05-05 08:20 13.05541 121.75653 23838 ft 411 kts 326°
2026-05-05 08:20 13.07880 121.74019 23843 ft 411 kts 326°
2026-05-05 08:21 13.10286 121.72337 23845 ft 412 kts 326°
2026-05-05 08:21 13.12646 121.70688 23848 ft 411 kts 326°
2026-05-05 08:21 13.14996 121.69044 23850 ft 411 kts 326°
2026-05-05 08:21 13.17381 121.67376 23851 ft 411 kts 326°
2026-05-05 08:22 13.19756 121.65715 23751 ft 411 kts 326°
2026-05-05 08:22 13.22101 121.64073 23510 ft 409 kts 326°
2026-05-05 08:22 13.24428 121.62444 23269 ft 407 kts 326°
2026-05-05 08:22 13.26782 121.60796 23024 ft 405 kts 326°
2026-05-05 08:23 13.29126 121.59155 22780 ft 403 kts 326°
2026-05-05 08:23 13.31428 121.57542 22535 ft 402 kts 326°
2026-05-05 08:23 13.33745 121.55918 22273 ft 400 kts 326°
2026-05-05 08:23 13.36040 121.54310 21990 ft 398 kts 326°
2026-05-05 08:24 13.38321 121.52709 21610 ft 396 kts 326°
2026-05-05 08:24 13.40595 121.51115 21177 ft 392 kts 326°
2026-05-05 08:24 13.42839 121.49541 20729 ft 389 kts 326°
2026-05-05 08:24 13.45045 121.47993 20274 ft 386 kts 326°
2026-05-05 08:25 13.47252 121.46442 19813 ft 384 kts 326°
2026-05-05 08:25 13.49481 121.44877 19350 ft 380 kts 326°
2026-05-05 08:25 13.51628 121.43368 19036 ft 372 kts 326°
2026-05-05 08:25 13.53746 121.41879 18877 ft 359 kts 326°
2026-05-05 08:26 13.55757 121.40466 18752 ft 347 kts 326°
2026-05-05 08:26 13.57728 121.39076 18575 ft 338 kts 326°
2026-05-05 08:26 13.59643 121.37669 18177 ft 337 kts 325°
2026-05-05 08:26 13.61531 121.36259 17793 ft 334 kts 325°
2026-05-05 08:27 13.63426 121.34841 17399 ft 332 kts 324°
2026-05-05 08:27 13.65297 121.33443 17021 ft 331 kts 325°
2026-05-05 08:27 13.67144 121.32065 16659 ft 329 kts 325°
2026-05-05 08:27 13.68986 121.30691 16291 ft 328 kts 325°
2026-05-05 08:28 13.70826 121.29320 15932 ft 326 kts 324°
2026-05-05 08:28 13.72671 121.27943 15562 ft 325 kts 325°
2026-05-05 08:28 13.74509 121.26571 15197 ft 324 kts 325°
2026-05-05 08:28 13.76323 121.25217 14841 ft 323 kts 325°
2026-05-05 08:29 13.78134 121.23865 14479 ft 322 kts 325°
2026-05-05 08:29 13.79940 121.22518 14115 ft 320 kts 325°
2026-05-05 08:29 13.81732 121.21180 13751 ft 318 kts 325°
2026-05-05 08:30 13.85305 121.18513 13031 ft 314 kts 325°
2026-05-05 08:30 13.87081 121.17187 12667 ft 313 kts 325°
2026-05-05 08:30 13.88836 121.15876 12309 ft 312 kts 325°
2026-05-05 08:30 13.90595 121.14560 11945 ft 310 kts 325°
2026-05-05 08:31 13.92340 121.13252 11568 ft 309 kts 325°
2026-05-05 08:31 13.94073 121.11957 11204 ft 308 kts 325°
2026-05-05 08:31 13.95792 121.10669 10851 ft 306 kts 325°
2026-05-05 08:31 13.97523 121.09373 10471 ft 305 kts 325°
2026-05-05 08:32 13.99234 121.08089 10113 ft 303 kts 325°
2026-05-05 08:32 14.00922 121.06828 9757 ft 301 kts 325°
2026-05-05 08:32 14.02615 121.05569 9404 ft 300 kts 325°
2026-05-05 08:32 14.04313 121.04301 9038 ft 298 kts 325°
2026-05-05 08:33 14.05987 121.03048 8692 ft 297 kts 325°
2026-05-05 08:33 14.07653 121.01799 8384 ft 295 kts 325°
2026-05-05 08:33 14.09316 121.00555 8124 ft 293 kts 324°
2026-05-05 08:33 14.10960 120.99325 7837 ft 293 kts 324°
2026-05-05 08:34 14.12622 120.98081 7585 ft 289 kts 324°
2026-05-05 08:34 14.14241 120.96868 7350 ft 284 kts 323°
2026-05-05 08:34 14.15801 120.95699 7118 ft 272 kts 323°
2026-05-05 08:34 14.17319 120.94598 7008 ft 260 kts 327°
2026-05-05 08:35 14.18863 120.93643 6718 ft 258 kts 329°
2026-05-05 08:35 14.20424 120.92720 6375 ft 256 kts 330°
2026-05-05 08:35 14.21969 120.91809 6015 ft 253 kts 330°
2026-05-05 08:35 14.23482 120.90915 5684 ft 250 kts 330°
2026-05-05 08:36 14.24989 120.90024 5427 ft 244 kts 331°
2026-05-05 08:36 14.26433 120.89168 5315 ft 237 kts 331°
2026-05-05 08:36 14.27881 120.88314 5211 ft 239 kts 332°
2026-05-05 08:36 14.29320 120.87482 4933 ft 239 kts 332°
2026-05-05 08:37 14.30771 120.86646 4654 ft 237 kts 332°
2026-05-05 08:37 14.32225 120.85803 4382 ft 236 kts 332°
2026-05-05 08:37 14.33657 120.84975 4115 ft 235 kts 332°
2026-05-05 08:37 14.35088 120.84147 3842 ft 234 kts 332°
2026-05-05 08:38 14.36515 120.83318 3574 ft 233 kts 332°
2026-05-05 08:38 14.37937 120.82536 3286 ft 231 kts 342°
2026-05-05 08:38 14.39493 120.82455 3019 ft 220 kts 25°
2026-05-05 08:38 14.40630 120.83362 3006 ft 201 kts 57°
2026-05-05 08:39 14.41346 120.84588 3014 ft 199 kts 64°
2026-05-05 08:39 14.41976 120.85850 2955 ft 198 kts 64°
2026-05-05 08:39 14.42606 120.87077 2814 ft 189 kts 63°
2026-05-05 08:39 14.43240 120.88254 2564 ft 186 kts 63°
2026-05-05 08:40 14.43872 120.89395 2322 ft 182 kts 62°
2026-05-05 08:40 14.44498 120.90515 2081 ft 177 kts 62°
2026-05-05 08:40 14.45108 120.91607 1846 ft 172 kts 62°
2026-05-05 08:40 14.45690 120.92648 1616 ft 161 kts 62°
2026-05-05 08:41 14.46222 120.93601 1437 ft 145 kts 63°
2026-05-05 08:41 14.46702 120.94463 1245 ft 134 kts 63°
2026-05-05 08:41 14.47161 120.95288 1089 ft 133 kts 63°
2026-05-05 08:41 14.47619 120.96114 929 ft 133 kts 63°
2026-05-05 08:42 14.48079 120.96942 760 ft 132 kts 62°
2026-05-05 08:42 14.48539 120.97763 593 ft 132 kts 63°
2026-05-05 08:42 14.48990 120.98594 419 ft 131 kts 63°
2026-05-05 08:42 14.49447 120.99414 260 ft 131 kts 62°
2026-05-05 08:43 14.49902 121.00228 109 ft 130 kts 62°
2026-05-05 08:43 14.50322 121.00985 81 ft 101 kts 59°
2026-05-05 08:43 14.50591 121.01464 81 ft 52 kts 60°
2026-05-05 08:43 14.50690 121.01633 81 ft 28 kts 52°